Total_Precipitation_Accumulation
0.39 0.29 0.34 0.42 0.32 0.26 0.49 0.61 0.97 0.41 0.42 0.63 1.15 1.24 0.80 0.29 0.17 0.18 0.16 0.13 0.21 0.23 0.23 0.23 0.31 0.37 0.45 0.58 1.06 1.21 1.46 1.92 1.82 1.57 1.43 1.52 1.54 1.41 0.88 0.77 0.66 0.53 0.49 0.48
0.42 0.40 0.33 0.25 0.11 0.25 0.36 0.39 0.53 0.42 0.51 0.67 0.84 0.97 0.74 0.60 0.36 0.27 0.25 0.22 0.24 0.28 0.29 0.29 0.28 0.24 0.29 0.38 0.45 0.62 0.72 1.17 1.61 1.98 1.30 1.35 1.62 1.84 1.41 0.99 1.07 0.86 0.94 0.77
0.53 0.31 0.59 0.48 0.08 0.12 0.20 0.36 0.59 0.73 0.51 0.40 0.55 0.69 0.47 0.46 0.43 0.38 0.41 0.23 0.22 0.23 0.21 0.25 0.27 0.27 0.33 0.40 0.38 0.49 0.65 1.01 1.16 1.44 1.87 1.48 1.69 1.88 2.15 1.77 1.43 1.48 1.28 1.25
0.81 0.48 1.05 0.26 0.17 0.27 0.28 0.45 0.54 0.59 0.46 0.40 0.37 0.74 0.76 0.40 0.50 0.54 0.65 0.77 0.45 0.39 0.38 0.42 0.48 0.52 0.56 0.62 0.69 0.77 0.87 1.04 1.25 1.18 1.69 2.05 1.76 1.74 1.76 1.89 2.00 1.92 1.58 1.38
1.08 0.85 0.39 0.16 0.28 0.53 0.62 0.62 0.44 0.39 0.33 0.29 0.29 0.38 0.77 0.67 0.54 0.63 0.75 0.98 1.25 0.84 0.75 0.89 0.91 1.02 1.18 1.24 1.25 1.19 1.40 1.56 1.72 1.79 1.83 1.94 2.24 2.07 2.10 1.94 1.92 1.92 1.70 1.38
0.97 1.09 0.70 0.73 0.26 0.21 0.62 0.72 0.31 0.30 0.31 0.36 0.35 0.48 0.59 0.65 0.79 0.90 0.84 0.71 0.74 1.10 1.15 1.12 1.33 1.13 1.15 1.36 1.50 1.62 1.60 1.68 1.77 1.81 1.93 2.15 2.42 2.49 2.33 2.11 1.81 1.55 1.59 1.54
0.83 1.00 0.73 0.47 0.26 0.36 0.75 0.75 0.25 0.33 0.37 0.44 0.71 0.67 0.92 0.93 1.05 1.14 0.64 0.55 0.58 0.55 0.77 1.04 1.13 1.33 1.32 1.30 1.48 1.63 1.83 1.66 1.55 1.54 1.66 1.75 1.71 1.79 2.03 2.19 2.10 1.83 1.74 1.56
1.20 1.65 1.02 0.12 0.30 0.64 0.83 0.46 0.31 0.38 0.40 0.43 0.50 0.49 0.87 0.93 0.98 0.98 0.75 0.45 0.38 0.43 0.43 0.36 0.30 0.42 0.84 1.28 1.62 1.76 1.78 1.56 1.38 1.32 1.34 1.40 1.39 1.43 1.38 1.48 1.78 2.03 1.87 1.81
1.00 0.97 0.56 0.30 0.43 0.49 0.41 0.42 0.44 0.60 0.64 0.60 0.71 0.88 0.91 0.89 0.98 1.11 0.76 0.29 0.16 0.15 0.10 0.08 0.09 0.11 0.22 0.48 0.86 1.28 1.44 1.38 1.22 1.10 0.98 0.86 0.91 1.08 1.21 1.21 1.17 1.23 1.32 1.48
0.96 0.67 0.39 0.53 0.44 0.25 0.25 0.28 0.30 0.31 0.74 1.07 1.30 1.29 1.27 1.27 1.02 0.84 0.60 0.20 0.07 0.03 0.02 0.08 0.11 0.13 0.16 0.29 0.41 0.50 0.56 0.67 0.68 0.67 0.72 0.66 0.64 0.66 0.68 0.78 0.88 1.01 1.10 1.15
1.03 0.97 0.70 0.66 0.94 0.62 0.44 0.32 0.32 0.33 0.25 0.41 0.56 0.63 0.45 0.46 0.54 0.55 0.57 0.39 0.16 0.12 0.15 0.18 0.13 0.14 0.22 0.29 0.37 0.50 0.55 0.55 0.55 0.55 0.52 0.51 0.56 0.61 0.55 0.73 0.73 0.76 0.93 0.95
0.91 1.14 1.28 1.36 0.89 0.72 0.81 0.61 0.44 0.22 0.18 0.24 0.33 0.43 0.43 0.38 0.34 0.38 0.47 0.45 0.36 0.32 0.27 0.23 0.21 0.32 0.39 0.36 0.29 0.33 0.38 0.45 0.50 0.43 0.39 0.38 0.38 0.55 0.74 0.77 0.72 0.75 0.81 0.82
0.99 1.04 1.08 0.97 0.61 0.38 0.29 0.34 0.34 0.24 0.22 0.22 0.30 0.29 0.27 0.42 0.38 0.37 0.38 0.46 0.55 0.54 0.49 0.47 0.47 0.54 0.59 0.57 0.46 0.42 0.38 0.38 0.45 0.45 0.46 0.47 0.51 0.50 0.67 0.89 0.90 1.05 1.07 1.05
0.69 0.61 0.41 0.33 0.27 0.16 0.07 0.05 0.04 0.04 0.07 0.07 0.12 0.14 0.21 0.30 0.32 0.25 0.28 0.29 0.28 0.35 0.52 0.65 0.76 0.94 1.12 1.12 1.11 1.15 1.23 1.19 1.06 1.01 1.07 1.22 1.34 1.44 1.48 1.52 1.52 1.64 1.59 1.30
0.38 0.29 0.20 0.13 0.08 0.05 0.04 0.12 0.21 0.18 0.18 0.23 0.28 0.41 0.33 0.22 0.16 0.16 0.16 0.16 0.21 0.26 0.41 0.57 0.73 1.09 1.29 1.42 1.58 1.80 1.91 2.02 1.97 1.89 1.76 1.54 1.38 1.27 1.24 1.24 1.23 1.26 1.25 1.16
0.22 0.12 0.08 0.09 0.06 0.05 0.02 0.03 0.25 0.36 0.43 0.44 0.44 0.23 0.13 0.12 0.15 0.18 0.19 0.21 0.22 0.32 0.41 0.48 0.66 1.02 1.13 1.24 1.32 1.38 1.33 1.25 1.10 1.03 0.98 0.90 0.85 0.77 0.72 0.68 0.63 0.61 0.57 0.57
0.21 0.24 0.22 0.31 0.21 0.09 0.05 0.08 0.18 0.16 0.31 0.31 0.24 0.15 0.10 0.10 0.13 0.23 0.38 0.47 0.49 0.64 0.77 0.81 1.11 1.18 1.10 0.98 0.83 0.82 0.80 0.80 0.73 0.66 0.64 0.58 0.52 0.44 0.38 0.35 0.33 0.30 0.32 0.24
0.25 0.26 0.27 0.44 0.18 0.13 0.23 0.29 0.23 0.16 0.22 0.26 0.22 0.23 0.26 0.30 0.42 0.58 0.76 0.82 0.87 1.00 1.13 1.14 1.00 0.91 0.84 0.78 0.64 0.55 0.47 0.42 0.37 0.33 0.29 0.27 0.23 0.20 0.21 0.20 0.16 0.15 0.16 0.15
0.26 0.24 0.26 0.28 0.26 0.24 0.25 0.23 0.23 0.26 0.31 0.33 0.36 0.52 0.63 0.78 0.86 1.04 1.13 1.02 0.98 0.89 1.09 0.87 0.68 0.50 0.44 0.39 0.27 0.22 0.20 0.19 0.17 0.17 0.16 0.16 0.16 0.15 0.16 0.20 0.20 0.22 0.23 0.19
0.33 0.33 0.29 0.29 0.28 0.30 0.32 0.39 0.41 0.54 0.77 0.77 0.85 0.97 1.04 1.21 1.14 1.03 0.85 0.77 0.76 0.71 0.63 0.51 0.39 0.30 0.23 0.20 0.15 0.12 0.12 0.12 0.11 0.12 0.13 0.15 0.17 0.16 0.15 0.14 0.19 0.27 0.29 0.28
0.50 0.49 0.54 0.58 0.74 0.91 0.97 1.05 0.86 0.96 1.20 1.08 0.88 0.94 0.88 0.94 0.81 0.66 0.50 0.47 0.60 0.42 0.36 0.35 0.29 0.23 0.17 0.13 0.12 0.11 0.11 0.11 0.09 0.12 0.15 0.17 0.20 0.21 0.24 0.26 0.28 0.29 0.31 0.29
0.97 0.91 1.00 0.96 0.83 1.07 1.19 1.08 0.86 0.85 0.85 0.85 0.78 0.70 0.56 0.59 0.52 0.44 0.36 0.31 0.38 0.24 0.18 0.17 0.16 0.15 0.12 0.10 0.10 0.11 0.11 0.12 0.15 0.18 0.21 0.24 0.28 0.33 0.36 0.36 0.38 0.39 0.43 0.43
0.97 0.87 0.86 0.81 0.72 0.80 0.83 0.76 0.72 0.55 0.53 0.52 0.47 0.43 0.34 0.32 0.25 0.18 0.25 0.22 0.13 0.09 0.07 0.09 0.09 0.09 0.08 0.14 0.16 0.16 0.17 0.19 0.20 0.22 0.30 0.37 0.39 0.39 0.34 0.30 0.27 0.27 0.29 0.26
0.65 0.62 0.64 0.62 0.43 0.31 0.35 0.46 0.37 0.33 0.30 0.29 0.26 0.22 0.16 0.14 0.19 0.10 0.06 0.08 0.05 0.04 0.04 0.08 0.06 0.08 0.11 0.18 0.18 0.18 0.22 0.28 0.31 0.32 0.28 0.23 0.25 0.24 0.22 0.19 0.16 0.16 0.17 0.16
0.44 0.42 0.40 0.34 0.26 0.30 0.29 0.26 0.21 0.23 0.20 0.20 0.16 0.13 0.08 0.05 0.10 0.11 0.06 0.07 0.06 0.06 0.14 0.11 0.08 0.10 0.18 0.20 0.21 0.22 0.26 0.27 0.27 0.24 0.22 0.20 0.19 0.18 0.18 0.16 0.16 0.15 0.14 0.14
0.25 0.24 0.28 0.27 0.29 0.26 0.22 0.18 0.21 0.23 0.17 0.19 0.21 0.16 0.14 0.08 0.06 0.06 0.08 0.08 0.07 0.08 0.16 0.23 0.16 0.18 0.22 0.24 0.25 0.26 0.25 0.22 0.20 0.18 0.16 0.14 0.14 0.14 0.14 0.10 0.09 0.09 0.10 0.09
0.28 0.26 0.23 0.24 0.24 0.19 0.18 0.17 0.18 0.19 0.17 0.16 0.22 0.23 0.16 0.13 0.11 0.07 0.09 0.12 0.13 0.16 0.19 0.21 0.22 0.23 0.22 0.19 0.19 0.17 0.15 0.14 0.13 0.11 0.10 0.10 0.10 0.10 0.08 0.07 0.06 0.06 0.07 0.08